Location: Unspecified
(49.2170°N, 0.0000°E)
Time: 16:58:26
(UTC+00:00)

A-11 Canister half - Pass Details

Date: 21 January 2021
Orbit: 1516 x 1684 km, 47.2° (Epoch: 05 March)

Event Time Altitude Azimuth Distance (km) Brightness Sun altitude
Exits shadow 02:58:45 16° 140° (SE) 3,256 10.7 -45.6°
Drops below altitude 10° 03:00:17 10° 137° (SE) 3,724 11.1 -45.4°
Sets 03:03:28 0° 133° (SE) 4,725 11.8 -44.9°
